Elko, NV

6:17 PM PDT on April 22, 2018 (GMT -0700)
Elko Regional

Weather History for KEKO - January, 2013

Change the Weather History Date:

Monday, January 14, 2013

  Actual Average Record
Temperature  
Mean Temperature 1 °F 25 °F  
Max Temperature 13 °F 36 °F 61 °F (1895)
Min Temperature -12 °F 14 °F -20 °F (1932)
Degree Days  
Heating Degree Days 64 40  
Month to date heating degree days 793 560  
Since 1 July heating degree days 3241 3508  
Cooling Degree Days 0 0  
Month to date cooling degree days 0 0  
Year to date cooling degree days 0 0  
Moisture  
Dew Point -4 °F    
Average Humidity 81    
Maximum Humidity 95    
Minimum Humidity 66    
Precipitation  
Precipitation T in 0.03 in 1.00 in (1896)
Month to date precipitation 0.22 0.55  
Year to date precipitation 0.22 0.55  
Snow  
Snow T in 0.40 in 5.00 in (1930)
Month to date snowfall 3.1 5.1  
Since 1 July snowfall 27.0 20.7  
Snow Depth 8.00 in    
Sea Level Pressure  
Sea Level Pressure 30.57 in    
Wind  
Wind Speed 8 mph (SSW)    
Max Wind Speed 15 mph    
Max Gust Speed 22 mph    
Visibility 10 miles    
Events Snow    
T = Trace of Precipitation, MM = Missing Value Source: NWS Daily Summary

Daily Weather History Graph

Daily Weather History Graph

Search for Another Location

Airport or City:

Astronomy

Jan. 14, 2013 Rise Set
Actual Time 7:05 AM PST 4:39 PM PST
Civil Twilight 6:35 AM PST 5:09 PM PST
Nautical Twilight 6:01 AM PST 5:43 PM PST
Astronomical Twilight 5:28 AM PST 6:16 PM PST
Moon 8:40 AM PST (1/14) 8:31 PM PST (1/14)
Length of Visible Light 10h 34m
Length of Day
9h 33m
Waxing Crescent, 12% of the Moon is Illuminated
Jan 14
Waxing Crescent
Jan 18
First Quarter
Jan 26
Full
Feb 3
Last Quarter
Feb 9
New

Hourly Weather History & Observations

Time (PST) Temp. Windchill Dew Point Humidity Pressure Visibility Wind Dir Wind Speed Gust Speed Precip Events Conditions
12:56 AM -9.9 °F -19.2 °F -15.0 °F 78% 30.51 in 10.0 mi East 3.5 mph - N/A   Overcast
1:56 AM -11.0 °F -22.8 °F -15.0 °F 83% 30.53 in 10.0 mi NNE 4.6 mph - N/A   Overcast
2:07 AM -9.4 °F -20.9 °F -14.8 °F 77% 30.24 in 10.0 mi NE 4.6 mph - N/A   Overcast
2:56 AM -11.0 °F -24.6 °F -16.1 °F 78% 30.54 in 10.0 mi East 5.8 mph - N/A   Mostly Cloudy
4:56 AM -11.0 °F -26.2 °F -17.0 °F 75% 30.57 in 10.0 mi East 6.9 mph - N/A   Overcast
5:56 AM -11.9 °F -27.3 °F -17.0 °F 78% 30.62 in 10.0 mi ENE 6.9 mph - N/A   Overcast
6:56 AM -11.0 °F -24.6 °F -16.1 °F 78% 30.62 in 10.0 mi East 5.8 mph - N/A   Overcast
7:56 AM -11.0 °F -26.2 °F -16.1 °F 78% 30.67 in 9.0 mi ENE 6.9 mph - N/A   Scattered Clouds
8:56 AM -9.9 °F -24.9 °F -15.0 °F 78% 30.72 in 10.0 mi East 6.9 mph - N/A   Clear
9:56 AM -4.0 °F -12.4 °F -6.0 °F 91% 30.67 in 10.0 mi SW 3.5 mph - N/A   Partly Cloudy
11:34 AM 3.2 °F -4.2 °F -2.2 °F 78% 30.31 in 10.0 mi SW 3.5 mph - N/A   Mostly Cloudy
11:56 AM 3.9 °F -3.4 °F -2.9 °F 73% 30.64 in 10.0 mi SW 3.5 mph - N/A   Overcast
12:29 PM 8.6 °F -4.7 °F 1.4 °F 73% 30.31 in 10.0 mi SSW 9.2 mph - N/A   Overcast
12:56 PM 9.0 °F -5.1 °F 1.9 °F 73% 30.62 in 10.0 mi SSW 10.4 mph - N/A   Mostly Cloudy
1:56 PM 10.9 °F -3.4 °F 1.9 °F 67% 30.61 in 10.0 mi SW 11.5 mph - N/A   Clear
2:56 PM 12.0 °F -3.4 °F 3.0 °F 67% 30.61 in 10.0 mi SW 13.8 mph - N/A   Mostly Cloudy
3:56 PM 10.9 °F -3.4 °F 3.0 °F 70% 30.62 in 10.0 mi SW 11.5 mph - N/A   Partly Cloudy
4:56 PM 10.9 °F -2.6 °F 3.0 °F 70% 30.65 in 9.0 mi WSW 10.4 mph - 0.00 in Snow Light Snow
5:56 PM 10.9 °F -4.1 °F 3.0 °F 70% 30.66 in 6.0 mi SW 12.7 mph - 0.00 in Snow Light Snow
6:56 PM 10.9 °F -0.8 °F 5.0 °F 77% 30.67 in 10.0 mi SW 8.1 mph - 0.00 in   Overcast
7:56 PM 10.0 °F 0.4 °F 5.0 °F 80% 30.66 in 9.0 mi SSW 5.8 mph - 0.00 in Snow Light Snow
8:56 PM 10.9 °F -2.6 °F 5.0 °F 77% 30.65 in 10.0 mi SW 10.4 mph - 0.00 in   Overcast
9:56 PM 12.0 °F -0.4 °F 6.1 °F 77% 30.64 in 10.0 mi SSW 9.2 mph - N/A   Overcast
10:26 PM 12.2 °F -0.2 °F 6.8 °F 79% 30.37 in 10.0 mi SW 9.2 mph - N/A   Overcast
10:56 PM 12.9 °F 2.6 °F 6.1 °F 74% 30.63 in 10.0 mi SSW 6.9 mph - N/A   Overcast
11:56 PM 12.9 °F -0.2 °F 6.1 °F 74% 30.61 in 10.0 mi SW 10.4 mph - N/A   Overcast